Погода в Маразе

Погода в Маразе : погода сейчас, прогноз погоды и архив. Всё, что Вы хотите узнать о погоде в Маразе!

Поиск расширенной информации на нашем сайте:

Другие новости

Новости СМИ2

Главная страница сайта

Новости сайта

03.07.2017

Напоминаем, что на нашем специализированном сайте Метеоцентр.Азия вы можете получить высокодетализированные автоматические прогнозы погоды по пунктам России, СНГ и мира в авиационном формате (включающие направление и скорость ветра, видимость, явления погоды, количество и форму облачности, нижнюю и верхнюю границу облачности).


Погода в Маразе - сегодня

Время (UTC), дата Ветер
(°,м/с) 
Видим.   Явления Облачность Т
(°С)
Тd
(°С)
f(%) Тe
(°С)
Pmin
(гПа)
dP
(гПа)
Po
(мм)
O2
(г/м3)
Тmin Tmax R s Состояние
почвы
03 18.07.17 300 (СЗ) 20000 м    ясно 
+21 +5 35 +21  1014.5  698  260           
06 18.07.17 220 (ЮЗ) 20000 м    ясно 
+28.5 +14.2 42 +38  1012.8  0.6  698  252           
09 18.07.17 190 (Ю) 20000 м    ясно 
+30.5 +9.4 27 +32  1011.8  -0.5  698  251           
12 18.07.17 170 (Ю) 20000 м    ясно 
+32.1 +11 27 +36  1010.2  -1  697  249           
15 18.07.17 150 (ЮВ) 20000 м    ясно 
+30 -1.9 13 +30  1010.8  -0.3  697  253           
18 18.07.17 020 (С) 10 км    ясно 
+20.9 +8.1 44 +21  1013.2  0.1  697  259    +33.1       
21 18.07.17 тихо ()   10 км    ясно 
+18 +6.5 47 +18  1014.1  -0.1  697  262           
00 19.07.17 тихо ()   10 км    ясно 
+15.8 +7.8 59 +16  1014.5  -0.2  697  264           
03 19.07.17 260 (З) 20000 м    ясно 
+18.2 +11.7 66 +24  1013  -0.1  696  261           
06 19.07.17 150 (ЮВ) 20000 м    ясно 
+30.5 -0.9 13 +31  1010.7  0.6  697  252           
09 19.07.17 тихо ()   20000 м    ясно 
+32.8 -2.2 10 +33  1008.7  -1.1  696  250           
12 19.07.17 180 (Ю) 20000 м    3/0 средняя 
[Ac und]
+33.5 +1.9 14 +34  1006.8  -1.5  695  249           
15 19.07.17 170 (Ю) 20000 м    1/0 верхняя 
[Ci sp]
+30.4 +1.3 15 +30  1007  -0.6  694  251           
18 19.07.17 тихо ()   10 км    3/0 средняя 
[Ac und]
+21.2 +9.7 48 +23  1010  0.7  695  258    +34.3       
21 19.07.17 тихо ()   10 км    ясно 
+18.3 +6.2 45 +18  1010.4  -0.7  694  261           
00 20.07.17 тихо ()   10 км    ясно 
+17.7 +4.5 42 +18  1010.2  -0.4  694  262           
03 20.07.17 тихо ()   20000 м    3/3 600 м 
[Cu med, cong]
+23.8 +3.2 26 +24  1008.3  -0.1  694  257           
06 20.07.17 150 (ЮВ) 20000 м    8/8 600 м 
[Cu med, cong]
+30.1 +7.3 24 +30  1006.6  0.2  694  251           
09 20.07.17 140 (ЮВ) 20000 м    3/0 средняя 
[Ac und]
+32.2 +5.9 19 +32  1006.2  0.1  694  249           
12 20.07.17 140 (ЮВ) 20000 м    3/0 верхняя 
[Ci sp]
+33.3 +5.6 18 +33  1004.7  -1.3  693  248           
15 20.07.17 110 (В) 20000 м    4/4 600 м 
[Cu med, cong]
+29.8 +5.5 22 +30  1004.7  -0.7  693  251           
18 20.07.17 тихо ()   10 км    ясно 
+21.3 +10.5 50 +25  1007.7  0.7  693  257    +34.9       
21 20.07.17 тихо ()   10 км    ясно 
+18.5 +8 50 +19  1009.1  0.4  694  260           
00 21.07.17 тихо ()   10 км    ясно 
+16.5 +7.8 56 +17  1009.6  -0.1  693  262           
03 21.07.17 тихо ()   20000 м    8/8 600 м 
[Cu med, cong]
+19.9 +11.4 58 +25  1009.5  0.8  694  258           
Время (UTC), дата Ветер
(°,м/с) 
Видим.   Явления Облачность Т
(°С)
Тd
(°С)
f(%) Тe
(°С)
Pmin
(гПа)
dP
(гПа)
Po
(мм)
O2
(г/м3)
Тmin Tmax R s Состояние
почвы

Для получения пояснительной информации подведите курсор к названию столбца.

ПОГОДА в Маразе - архив

Всё, что Вы хотите узнать о погоде в Маразе - удобно и подробно!

Выберите нужную дату (начиная с 1 января 2015* года) и нажмите кнопку "Найти".
Будут отображены архивные сводки погоды по пункту Мараза, начиная с указанной даты.


Отображать данные в формате CSV (для использования в таблицах Excel)


Внимание! Наш архив погоды предназначен исключительно для личного некоммерческого использования в познавательных целях. Если Вам необходимы официальные справки о состоянии погоды (для производственных, юридических, коммерческих и т.п. целей), обращайтесь в органы Росгидромета.

*Примечание: данная дата относится к архиву по метеостанциям СССР (Россия, СНГ, Балтия).
Архив по метеостанциям Зарубежной Европы и Азии (кроме Китая) хранится 10 дней, по другим регионам земного шара (Китай, Африка, Америка, Австралия, Океания) - 1 день.

Мараза - район местоположения метеостанции


Название, широта, долгота, высота метеостанции:
Мараза 40.5°ш. 48.9°д. 755 м над ур. моря [Азербайджан]

Дополнительная информация

В oтличие oт бoльшинства пoгoдных сайтoв мы публикуем пoдрoбную метеoинфoрмацию в детальнoм прoфессиoнальнoм фoрмате.

Характеристики температуры и влажнoсти вoздуха измеряются на высoте 2 м в тени вдали oт зданий и деревьев.
Скoрoсть ветра измеряется на высoте 10 м (на урoвне рoста челoвека скoрoсть ветра ниже в 1.5-2 раза). Если метеoстанция нахoдится в гoрoде или в лесу, тo скoрoсть ветра занижена на 2-4 м/с пo сравнению с oткрытым местoм. Скoрoсть ветра над акватoриями крупных рек и oзёр, а также на вершинах хoлмoв на 2-5 м/с выше, чем в oбычных услoвиях.
Атмoсфернoе давление в разных тoчках местнoсти мoжет значительнo oтличаться oт давления на метеoстанции, в зависимoсти oт услoвий рельефа (при пoдъёме на 10 м давление пoнижается примернo на 1 мм рт.ст.).